Year,Month,Day,Hour,Minute,Value (Times are PST for temperature in C)
2018,04,26,00,00,12.10
2018,04,26,00,01,12.10
2018,04,26,00,02,12.10
2018,04,26,00,03,12.10
2018,04,26,00,04,12.10
2018,04,26,00,05,12.10
2018,04,26,00,06,12.10
2018,04,26,00,07,12.00
2018,04,26,00,08,12.00
2018,04,26,00,09,12.00
2018,04,26,00,10,12.00
2018,04,26,00,11,12.00
2018,04,26,00,12,12.00
2018,04,26,00,13,11.90
2018,04,26,00,14,11.90
2018,04,26,00,15,11.90
2018,04,26,00,16,11.90
2018,04,26,00,17,11.90
2018,04,26,00,18,11.90
2018,04,26,00,19,11.80
2018,04,26,00,20,11.80
2018,04,26,00,21,11.80
2018,04,26,00,22,11.80
2018,04,26,00,23,11.80
2018,04,26,00,24,11.80
2018,04,26,00,25,11.80
2018,04,26,00,26,11.80
2018,04,26,00,27,11.80
2018,04,26,00,28,11.80
2018,04,26,00,29,11.80
2018,04,26,00,30,11.70
2018,04,26,00,31,11.70
2018,04,26,00,32,11.70
2018,04,26,00,33,11.60
2018,04,26,00,34,11.60
2018,04,26,00,35,11.60
2018,04,26,00,36,11.60
2018,04,26,00,37,11.60
2018,04,26,00,38,11.50
2018,04,26,00,39,11.40
2018,04,26,00,40,11.40
2018,04,26,00,41,11.40
2018,04,26,00,42,11.40
2018,04,26,00,43,11.40
2018,04,26,00,44,11.50
2018,04,26,00,45,11.60
2018,04,26,00,46,11.60
2018,04,26,00,47,11.60
2018,04,26,00,48,11.60
2018,04,26,00,49,11.60
2018,04,26,00,50,11.60
2018,04,26,00,51,11.60
2018,04,26,00,52,11.60
2018,04,26,00,53,11.60
2018,04,26,00,54,11.60
2018,04,26,00,55,11.60
2018,04,26,00,56,11.50
2018,04,26,00,57,11.40
2018,04,26,00,58,11.40
2018,04,26,00,59,11.40
2018,04,26,01,00,11.40
2018,04,26,01,01,11.40
2018,04,26,01,02,11.40
2018,04,26,01,03,11.40
2018,04,26,01,04,11.40
2018,04,26,01,05,11.40
2018,04,26,01,06,11.40
2018,04,26,01,07,11.40
2018,04,26,01,08,11.30
2018,04,26,01,09,11.30
2018,04,26,01,10,11.30
2018,04,26,01,11,11.30
2018,04,26,01,12,11.30
2018,04,26,01,13,11.20
2018,04,26,01,14,11.20
2018,04,26,01,15,11.20
2018,04,26,01,16,11.20
2018,04,26,01,17,11.20
2018,04,26,01,18,11.20
2018,04,26,01,19,11.10
2018,04,26,01,20,11.10
2018,04,26,01,21,11.10
2018,04,26,01,22,11.10
2018,04,26,01,23,11.10
2018,04,26,01,24,11.10
2018,04,26,01,25,11.10
2018,04,26,01,26,11.10
2018,04,26,01,27,11.10
2018,04,26,01,28,11.10
2018,04,26,01,29,11.00
2018,04,26,01,30,10.90
2018,04,26,01,31,10.90
2018,04,26,01,32,10.90
2018,04,26,01,33,10.90
2018,04,26,01,34,10.90
2018,04,26,01,35,10.80
2018,04,26,01,36,10.80
2018,04,26,01,37,10.80
2018,04,26,01,38,10.70
2018,04,26,01,39,10.70
2018,04,26,01,40,10.70
2018,04,26,01,41,10.70
2018,04,26,01,42,10.70
2018,04,26,01,43,10.60
2018,04,26,01,44,10.60
2018,04,26,01,45,10.60
2018,04,26,01,46,10.60
2018,04,26,01,47,10.60
2018,04,26,01,48,10.50
2018,04,26,01,49,10.40
2018,04,26,01,50,10.40
2018,04,26,01,51,10.40
2018,04,26,01,52,10.40
2018,04,26,01,53,10.30
2018,04,26,01,54,10.30
2018,04,26,01,55,10.20
2018,04,26,01,56,10.20
2018,04,26,01,57,10.10
2018,04,26,01,58,10.10
2018,04,26,01,59,10.10
2018,04,26,02,00,10.10
2018,04,26,02,01,10.10
2018,04,26,02,02,9.90
2018,04,26,02,03,9.90
2018,04,26,02,04,9.90
2018,04,26,02,05,9.90
2018,04,26,02,06,9.90
2018,04,26,02,07,9.90
2018,04,26,02,08,9.90
2018,04,26,02,09,9.90
2018,04,26,02,10,9.90
2018,04,26,02,11,9.90
2018,04,26,02,12,9.90
2018,04,26,02,13,9.90
2018,04,26,02,14,9.90
2018,04,26,02,15,9.90
2018,04,26,02,16,9.90
2018,04,26,02,17,9.90
2018,04,26,02,18,9.90
2018,04,26,02,19,9.90
2018,04,26,02,20,9.90
2018,04,26,02,21,9.90
2018,04,26,02,22,9.90
2018,04,26,02,23,9.90
2018,04,26,02,24,9.90
2018,04,26,02,25,9.90
2018,04,26,02,26,9.90
2018,04,26,02,27,9.90
2018,04,26,02,28,9.90
2018,04,26,02,29,9.90
2018,04,26,02,30,9.90
2018,04,26,02,31,9.90
2018,04,26,02,32,9.90
2018,04,26,02,33,9.90
2018,04,26,02,34,9.90
2018,04,26,02,35,9.80
2018,04,26,02,36,9.80
2018,04,26,02,37,9.80
2018,04,26,02,38,9.80
2018,04,26,02,39,9.80
2018,04,26,02,40,9.80
2018,04,26,02,41,9.70
2018,04,26,02,42,9.70
2018,04,26,02,43,9.70
2018,04,26,02,44,9.70
2018,04,26,02,45,9.60
2018,04,26,02,46,9.60
2018,04,26,02,47,9.60
2018,04,26,02,48,9.60
2018,04,26,02,49,9.50
2018,04,26,02,50,9.50
2018,04,26,02,51,9.50
2018,04,26,02,52,9.40
2018,04,26,02,53,9.40
2018,04,26,02,54,9.40
2018,04,26,02,55,9.40
2018,04,26,02,56,9.40
2018,04,26,02,57,9.40
2018,04,26,02,58,9.30
2018,04,26,02,59,9.30
2018,04,26,03,00,9.30
2018,04,26,03,01,9.30
2018,04,26,03,02,9.30
2018,04,26,03,03,9.30
2018,04,26,03,04,9.40
2018,04,26,03,05,9.40
2018,04,26,03,06,9.50
2018,04,26,03,07,9.50
2018,04,26,03,08,9.50
2018,04,26,03,09,9.60
2018,04,26,03,10,9.60
2018,04,26,03,11,9.70
2018,04,26,03,12,9.70
2018,04,26,03,13,9.70
2018,04,26,03,14,9.70
2018,04,26,03,15,9.80
2018,04,26,03,16,9.80
2018,04,26,03,17,9.80
2018,04,26,03,18,9.90
2018,04,26,03,19,9.90
2018,04,26,03,20,9.90
2018,04,26,03,21,9.90
2018,04,26,03,22,9.90
2018,04,26,03,23,9.90
2018,04,26,03,24,10.00
2018,04,26,03,25,10.10
2018,04,26,03,26,10.10
2018,04,26,03,27,10.10
2018,04,26,03,28,10.10
2018,04,26,03,29,10.20
2018,04,26,03,30,10.20
2018,04,26,03,31,10.20
2018,04,26,03,32,10.30
2018,04,26,03,33,10.30
2018,04,26,03,34,10.40
2018,04,26,03,35,10.40
2018,04,26,03,36,10.50
2018,04,26,03,37,10.60
2018,04,26,03,38,10.60
2018,04,26,03,39,10.60
2018,04,26,03,40,10.70
2018,04,26,03,41,10.70
2018,04,26,03,42,10.80
2018,04,26,03,43,10.80
2018,04,26,03,44,10.80
2018,04,26,03,45,10.80
2018,04,26,03,46,10.80
2018,04,26,03,47,10.80
2018,04,26,03,48,10.80
2018,04,26,03,49,10.80
2018,04,26,03,50,10.80
2018,04,26,03,51,10.80
2018,04,26,03,52,10.80
2018,04,26,03,53,10.80
2018,04,26,03,54,10.80
2018,04,26,03,55,10.80
2018,04,26,03,56,10.90
2018,04,26,03,57,10.90
2018,04,26,03,58,10.90
2018,04,26,03,59,10.90
2018,04,26,04,00,10.90
2018,04,26,04,01,10.90
2018,04,26,04,02,10.90
2018,04,26,04,03,10.90
2018,04,26,04,04,10.90
2018,04,26,04,05,10.90
2018,04,26,04,06,10.90
2018,04,26,04,07,10.90
2018,04,26,04,08,10.90
2018,04,26,04,09,10.90
2018,04,26,04,10,11.00
2018,04,26,04,11,11.10
2018,04,26,04,12,11.10
2018,04,26,04,13,11.10
2018,04,26,04,14,11.20
2018,04,26,04,15,11.20
2018,04,26,04,16,11.30
2018,04,26,04,17,11.40
2018,04,26,04,18,11.40
2018,04,26,04,19,11.40
2018,04,26,04,20,11.60
2018,04,26,04,21,11.60
2018,04,26,04,22,11.60
2018,04,26,04,23,11.70
2018,04,26,04,24,11.70
2018,04,26,04,25,11.80
2018,04,26,04,26,11.80
2018,04,26,04,27,11.80
2018,04,26,04,28,11.80
2018,04,26,04,29,11.80
2018,04,26,04,30,11.90
2018,04,26,04,31,11.90
2018,04,26,04,32,11.90
2018,04,26,04,33,11.90
2018,04,26,04,34,11.90
2018,04,26,04,35,12.00
2018,04,26,04,36,12.00
2018,04,26,04,37,12.00
2018,04,26,04,38,12.00
2018,04,26,04,39,12.00
2018,04,26,04,40,12.10
2018,04,26,04,41,12.10
2018,04,26,04,42,12.10
2018,04,26,04,43,12.10
2018,04,26,04,44,12.10
2018,04,26,04,45,12.10
2018,04,26,04,46,12.20
2018,04,26,04,47,12.20
2018,04,26,04,48,12.20
2018,04,26,04,49,12.20
2018,04,26,04,50,12.30
2018,04,26,04,51,12.30
2018,04,26,04,52,12.30
2018,04,26,04,53,12.30
2018,04,26,04,54,12.30
2018,04,26,04,55,12.30
2018,04,26,04,56,12.30
2018,04,26,04,57,12.30
2018,04,26,04,58,12.30
2018,04,26,04,59,12.30
2018,04,26,05,00,12.30
2018,04,26,05,01,12.30
2018,04,26,05,02,12.30
2018,04,26,05,03,12.30
2018,04,26,05,04,12.30
2018,04,26,05,05,12.30
2018,04,26,05,06,12.30
2018,04,26,05,07,12.30
2018,04,26,05,08,12.30
2018,04,26,05,09,12.30
2018,04,26,05,10,12.30
2018,04,26,05,11,12.30
2018,04,26,05,12,12.30
2018,04,26,05,13,12.30
2018,04,26,05,14,12.30
2018,04,26,05,15,12.30
2018,04,26,05,16,12.30
2018,04,26,05,17,12.30
2018,04,26,05,18,12.30
2018,04,26,05,19,12.30
2018,04,26,05,20,12.30
2018,04,26,05,21,12.30
2018,04,26,05,22,12.30
2018,04,26,05,23,12.30
2018,04,26,05,24,12.30
2018,04,26,05,25,12.30
2018,04,26,05,26,12.30
2018,04,26,05,27,12.30
2018,04,26,05,28,12.30
2018,04,26,05,29,12.30
2018,04,26,05,30,12.30
2018,04,26,05,31,12.40
2018,04,26,05,32,12.40
2018,04,26,05,33,12.40
2018,04,26,05,34,12.40
2018,04,26,05,35,12.40
2018,04,26,05,36,12.40
2018,04,26,05,37,12.40
2018,04,26,05,38,12.40
2018,04,26,05,39,12.40
2018,04,26,05,40,12.40
2018,04,26,05,41,12.40
2018,04,26,05,42,12.40
2018,04,26,05,43,12.40
2018,04,26,05,44,12.40
2018,04,26,05,45,12.40
2018,04,26,05,46,12.40
2018,04,26,05,47,12.40
2018,04,26,05,48,12.40
2018,04,26,05,49,12.40
2018,04,26,05,50,12.40
2018,04,26,05,51,12.40
2018,04,26,05,52,12.30
2018,04,26,05,53,12.30
2018,04,26,05,54,12.30
2018,04,26,05,55,12.30
2018,04,26,05,56,12.30
2018,04,26,05,57,12.30
2018,04,26,05,58,12.30
2018,04,26,05,59,12.30
2018,04,26,06,00,12.30
2018,04,26,06,01,12.30
2018,04,26,06,02,12.30
2018,04,26,06,03,12.30
2018,04,26,06,04,12.30
2018,04,26,06,05,12.30
2018,04,26,06,06,12.30
2018,04,26,06,07,12.30
2018,04,26,06,08,12.30
2018,04,26,06,09,12.30
2018,04,26,06,10,12.30
2018,04,26,06,11,12.30
2018,04,26,06,12,12.30
2018,04,26,06,13,12.30
2018,04,26,06,14,12.30
2018,04,26,06,15,12.40
2018,04,26,06,16,12.40
2018,04,26,06,17,12.40
2018,04,26,06,18,12.40
2018,04,26,06,19,12.40
2018,04,26,06,20,12.40
2018,04,26,06,21,12.50
2018,04,26,06,22,12.50
2018,04,26,06,23,12.50
2018,04,26,06,24,12.50
2018,04,26,06,25,12.50
2018,04,26,06,26,12.50
2018,04,26,06,27,12.50
2018,04,26,06,28,12.50
2018,04,26,06,29,12.60
2018,04,26,06,30,12.60
2018,04,26,06,31,12.60
2018,04,26,06,32,12.70
2018,04,26,06,33,12.70
2018,04,26,06,34,12.70
2018,04,26,06,35,12.70
2018,04,26,06,36,12.80
2018,04,26,06,37,12.80
2018,04,26,06,38,12.80
2018,04,26,06,39,12.80
2018,04,26,06,40,12.80
2018,04,26,06,41,12.80
2018,04,26,06,42,12.90
2018,04,26,06,43,12.90
2018,04,26,06,44,12.90
2018,04,26,06,45,12.90
2018,04,26,06,46,12.90
2018,04,26,06,47,13.00
2018,04,26,06,48,13.00
2018,04,26,06,49,13.00
2018,04,26,06,50,13.00
2018,04,26,06,51,13.00
2018,04,26,06,52,13.00
2018,04,26,06,53,13.00
2018,04,26,06,54,13.00
2018,04,26,06,55,13.00
2018,04,26,06,56,13.00
2018,04,26,06,57,13.00
2018,04,26,06,58,13.00
2018,04,26,06,59,13.00
2018,04,26,07,00,13.00
2018,04,26,07,01,13.00
2018,04,26,07,02,13.00
2018,04,26,07,03,13.00
2018,04,26,07,04,12.90
2018,04,26,07,05,12.90
2018,04,26,07,06,12.90
2018,04,26,07,07,12.90
2018,04,26,07,08,13.00
2018,04,26,07,09,13.00
2018,04,26,07,10,13.00
2018,04,26,07,11,13.10
2018,04,26,07,12,13.10
2018,04,26,07,13,13.20
2018,04,26,07,14,13.20
2018,04,26,07,15,13.30
2018,04,26,07,16,13.30
2018,04,26,07,17,13.30
2018,04,26,07,18,13.40
2018,04,26,07,19,13.50
2018,04,26,07,20,13.50
2018,04,26,07,21,13.60
2018,04,26,07,22,13.60
2018,04,26,07,23,13.70
2018,04,26,07,24,13.70
2018,04,26,07,25,13.80
2018,04,26,07,26,13.80
2018,04,26,07,27,13.90
2018,04,26,07,28,13.90
2018,04,26,07,29,14.00
2018,04,26,07,30,14.00
2018,04,26,07,31,14.00
2018,04,26,07,32,14.10
2018,04,26,07,33,14.20
2018,04,26,07,34,14.20
2018,04,26,07,35,14.20
2018,04,26,07,36,14.30
2018,04,26,07,37,14.30
2018,04,26,07,38,14.40
2018,04,26,07,39,14.40
2018,04,26,07,40,14.50
2018,04,26,07,41,14.50
2018,04,26,07,42,14.50
2018,04,26,07,43,14.50
2018,04,26,07,44,14.50
2018,04,26,07,45,14.50
2018,04,26,07,46,14.60
2018,04,26,07,47,14.50
2018,04,26,07,48,14.50
2018,04,26,07,49,14.50
2018,04,26,07,50,14.50
2018,04,26,07,51,14.60
2018,04,26,07,52,14.60
2018,04,26,07,53,14.60
2018,04,26,07,54,14.60
2018,04,26,07,55,14.60
2018,04,26,07,56,14.70
2018,04,26,07,57,14.70
2018,04,26,07,58,14.70
2018,04,26,07,59,14.80
2018,04,26,08,00,14.80
2018,04,26,08,01,14.90
2018,04,26,08,02,14.90
2018,04,26,08,03,15.00
2018,04,26,08,04,15.10
2018,04,26,08,05,15.10
2018,04,26,08,06,15.20
2018,04,26,08,07,15.30
2018,04,26,08,08,15.30
2018,04,26,08,09,15.40
2018,04,26,08,10,15.40
2018,04,26,08,11,15.50
2018,04,26,08,12,15.50
2018,04,26,08,13,15.60
2018,04,26,08,14,15.60
2018,04,26,08,15,15.70
2018,04,26,08,16,15.70
2018,04,26,08,17,15.70
2018,04,26,08,18,15.80
2018,04,26,08,19,15.70
2018,04,26,08,20,15.70
2018,04,26,08,21,15.70
2018,04,26,08,22,15.70
2018,04,26,08,23,15.70
2018,04,26,08,24,15.80
2018,04,26,08,25,15.80
2018,04,26,08,26,15.80
2018,04,26,08,27,15.80
2018,04,26,08,28,15.80
2018,04,26,08,29,15.80
2018,04,26,08,30,15.80
2018,04,26,08,31,15.80
2018,04,26,08,32,15.80
2018,04,26,08,33,15.80
2018,04,26,08,34,15.80
2018,04,26,08,35,15.80
2018,04,26,08,36,15.80
2018,04,26,08,37,15.90
2018,04,26,08,38,15.90
2018,04,26,08,39,16.00
2018,04,26,08,40,16.10
2018,04,26,08,41,16.10
2018,04,26,08,42,16.10
2018,04,26,08,43,16.00
2018,04,26,08,44,15.90
2018,04,26,08,45,15.90
2018,04,26,08,46,16.00
2018,04,26,08,47,16.10
2018,04,26,08,48,16.10
2018,04,26,08,49,16.10
2018,04,26,08,50,16.00
2018,04,26,08,51,16.10
2018,04,26,08,52,16.10
2018,04,26,08,53,16.10
2018,04,26,08,54,16.10
2018,04,26,08,55,16.10
2018,04,26,08,56,16.10
2018,04,26,08,57,16.10
2018,04,26,08,58,16.10
2018,04,26,08,59,16.10
2018,04,26,09,00,16.10
2018,04,26,09,01,16.20
2018,04,26,09,02,16.20
2018,04,26,09,03,16.30
2018,04,26,09,04,16.40
2018,04,26,09,05,16.40
2018,04,26,09,06,16.40
2018,04,26,09,07,16.60
2018,04,26,09,08,16.60
2018,04,26,09,09,16.70
2018,04,26,09,10,16.70
2018,04,26,09,11,16.70
2018,04,26,09,12,16.80
2018,04,26,09,13,16.90
2018,04,26,09,14,16.90
2018,04,26,09,15,17.00
2018,04,26,09,16,17.00
2018,04,26,09,17,17.10
2018,04,26,09,18,17.20
2018,04,26,09,19,17.20
2018,04,26,09,20,17.20
2018,04,26,09,21,17.30
2018,04,26,09,22,17.30
2018,04,26,09,23,17.30
2018,04,26,09,24,17.30
2018,04,26,09,25,17.30
2018,04,26,09,26,17.30
2018,04,26,09,27,17.40
2018,04,26,09,28,17.40
2018,04,26,09,29,17.40
2018,04,26,09,30,17.40
2018,04,26,09,31,17.40
2018,04,26,09,32,17.40
2018,04,26,09,33,17.40
2018,04,26,09,34,17.50
2018,04,26,09,35,17.50
2018,04,26,09,36,17.50
2018,04,26,09,37,17.50
2018,04,26,09,38,17.60
2018,04,26,09,39,17.60
2018,04,26,09,40,17.70
2018,04,26,09,41,17.70
2018,04,26,09,42,17.70
2018,04,26,09,43,17.80
2018,04,26,09,44,17.90
2018,04,26,09,45,17.90
2018,04,26,09,46,17.90
2018,04,26,09,47,17.90
2018,04,26,09,48,17.90
2018,04,26,09,49,18.00
2018,04,26,09,50,18.10
2018,04,26,09,51,18.10
2018,04,26,09,52,18.10
2018,04,26,09,53,18.10
2018,04,26,09,54,17.90
2018,04,26,09,55,17.90
2018,04,26,09,56,17.90
2018,04,26,09,57,18.00
2018,04,26,09,58,18.00
2018,04,26,09,59,17.90
2018,04,26,10,00,18.00
2018,04,26,10,01,18.10
2018,04,26,10,02,18.10
2018,04,26,10,03,18.10
2018,04,26,10,04,18.10
2018,04,26,10,05,18.10
2018,04,26,10,06,18.10
2018,04,26,10,07,18.10
2018,04,26,10,08,18.10
2018,04,26,10,09,18.10
2018,04,26,10,10,18.10
2018,04,26,10,11,18.10
2018,04,26,10,12,18.10
2018,04,26,10,13,18.20
2018,04,26,10,14,18.20
2018,04,26,10,15,18.20
2018,04,26,10,16,18.20
2018,04,26,10,17,18.20
2018,04,26,10,18,18.20
2018,04,26,10,19,18.20
2018,04,26,10,20,18.30
2018,04,26,10,21,18.30
2018,04,26,10,22,18.40
2018,04,26,10,23,18.50
2018,04,26,10,24,18.60
2018,04,26,10,25,18.60
2018,04,26,10,26,18.60
2018,04,26,10,27,18.60
2018,04,26,10,28,18.50
2018,04,26,10,29,18.50
2018,04,26,10,30,18.50
2018,04,26,10,31,18.50
2018,04,26,10,32,18.50
2018,04,26,10,33,18.50
2018,04,26,10,34,18.40
2018,04,26,10,35,18.40
2018,04,26,10,36,18.40
2018,04,26,10,37,18.30
2018,04,26,10,38,18.30
2018,04,26,10,39,18.30
2018,04,26,10,40,18.20
2018,04,26,10,41,18.20
2018,04,26,10,42,18.20
2018,04,26,10,43,18.20
2018,04,26,10,44,18.20
2018,04,26,10,45,18.20
2018,04,26,10,46,18.20
2018,04,26,10,47,18.20
2018,04,26,10,48,18.20
2018,04,26,10,49,18.20
2018,04,26,10,50,18.20
2018,04,26,10,51,18.20
2018,04,26,10,52,18.20
2018,04,26,10,53,18.30
2018,04,26,10,54,18.30
2018,04,26,10,55,18.30
2018,04,26,10,56,18.30
2018,04,26,10,57,18.30
2018,04,26,10,58,18.40
2018,04,26,10,59,18.40
2018,04,26,11,00,18.40
2018,04,26,11,01,18.40
2018,04,26,11,02,18.50
2018,04,26,11,03,18.50
2018,04,26,11,04,18.50
2018,04,26,11,05,18.50
2018,04,26,11,06,18.60
2018,04,26,11,07,18.60
2018,04,26,11,08,18.70
2018,04,26,11,09,18.70
2018,04,26,11,10,18.80
2018,04,26,11,11,18.90
2018,04,26,11,12,19.00
2018,04,26,11,13,19.10
2018,04,26,11,14,19.10
2018,04,26,11,15,19.10
2018,04,26,11,16,19.10
2018,04,26,11,17,19.10
2018,04,26,11,18,19.10
2018,04,26,11,19,19.10
2018,04,26,11,20,19.10
2018,04,26,11,21,19.10
2018,04,26,11,22,19.10
2018,04,26,11,23,19.20
2018,04,26,11,24,19.20
2018,04,26,11,25,19.20
2018,04,26,11,26,19.30
2018,04,26,11,27,19.30
2018,04,26,11,28,19.30
2018,04,26,11,29,19.30
2018,04,26,11,30,19.30
2018,04,26,11,31,19.40
2018,04,26,11,32,19.40
2018,04,26,11,33,19.50
2018,04,26,11,34,19.60
2018,04,26,11,35,19.60
2018,04,26,11,36,19.60
2018,04,26,11,37,19.70
2018,04,26,11,38,19.70
2018,04,26,11,39,19.80
2018,04,26,11,40,19.70
2018,04,26,11,41,19.70
2018,04,26,11,42,19.60
2018,04,26,11,43,19.60
2018,04,26,11,44,19.60
2018,04,26,11,45,19.60
2018,04,26,11,46,19.60
2018,04,26,11,47,19.70
2018,04,26,11,48,19.90
2018,04,26,11,49,19.90
2018,04,26,11,50,20.10
2018,04,26,11,51,20.20
2018,04,26,11,52,20.20
2018,04,26,11,53,20.20
2018,04,26,11,54,20.30
2018,04,26,11,55,20.30
2018,04,26,11,56,20.30
2018,04,26,11,57,20.30
2018,04,26,11,58,20.30
2018,04,26,11,59,20.30
2018,04,26,12,00,20.30
2018,04,26,12,01,20.30
2018,04,26,12,02,20.40
2018,04,26,12,03,20.40
2018,04,26,12,04,20.50
2018,04,26,12,05,20.50
2018,04,26,12,06,20.60
2018,04,26,12,07,20.60
2018,04,26,12,08,20.60
2018,04,26,12,09,20.50
2018,04,26,12,10,20.50
2018,04,26,12,11,20.60
2018,04,26,12,12,20.60
2018,04,26,12,13,20.50
2018,04,26,12,14,20.50
2018,04,26,12,15,20.40
2018,04,26,12,16,20.50
2018,04,26,12,17,20.50
2018,04,26,12,18,20.60
2018,04,26,12,19,20.60
2018,04,26,12,20,20.60
2018,04,26,12,21,20.50
2018,04,26,12,22,20.50
2018,04,26,12,23,20.50
2018,04,26,12,24,20.50
2018,04,26,12,25,20.50
2018,04,26,12,26,20.60
2018,04,26,12,27,20.70
2018,04,26,12,28,20.70
2018,04,26,12,29,20.70
2018,04,26,12,30,20.70
2018,04,26,12,31,20.70
2018,04,26,12,32,20.70
2018,04,26,12,33,20.60
2018,04,26,12,34,20.60
2018,04,26,12,35,20.60
2018,04,26,12,36,20.60
2018,04,26,12,37,20.60
2018,04,26,12,38,20.70
2018,04,26,12,39,20.70
2018,04,26,12,40,20.80
2018,04,26,12,41,20.80
2018,04,26,12,42,20.70
2018,04,26,12,43,20.60
2018,04,26,12,44,20.50
2018,04,26,12,45,20.50
2018,04,26,12,46,20.50
2018,04,26,12,47,20.50
2018,04,26,12,48,20.60
2018,04,26,12,49,20.50
2018,04,26,12,50,20.50
2018,04,26,12,51,20.60
2018,04,26,12,52,20.60
2018,04,26,12,53,20.60
2018,04,26,12,54,20.70
2018,04,26,12,55,20.70
2018,04,26,12,56,20.80
2018,04,26,12,57,20.90
2018,04,26,12,58,21.00
2018,04,26,12,59,21.00
2018,04,26,13,00,21.00
2018,04,26,13,01,21.00
2018,04,26,13,02,21.00
2018,04,26,13,03,21.00
2018,04,26,13,04,21.00
2018,04,26,13,05,21.00
2018,04,26,13,06,21.10
2018,04,26,13,07,21.20
2018,04,26,13,08,21.30
2018,04,26,13,09,21.30
2018,04,26,13,10,21.30
2018,04,26,13,11,21.40
2018,04,26,13,12,21.50
2018,04,26,13,13,21.60
2018,04,26,13,14,21.60
2018,04,26,13,15,21.60
2018,04,26,13,16,21.60
2018,04,26,13,17,21.60
2018,04,26,13,18,21.60
2018,04,26,13,19,21.60
2018,04,26,13,20,21.60
2018,04,26,13,21,21.60
2018,04,26,13,22,21.60
2018,04,26,13,23,21.60
2018,04,26,13,24,21.60
2018,04,26,13,25,21.60
2018,04,26,13,26,21.60
2018,04,26,13,27,21.60
2018,04,26,13,28,21.60
2018,04,26,13,29,21.60
2018,04,26,13,30,21.60
2018,04,26,13,31,21.60
2018,04,26,13,32,21.70
2018,04,26,13,33,21.70
2018,04,26,13,34,21.70
2018,04,26,13,35,21.70
2018,04,26,13,36,21.60
2018,04,26,13,37,21.70
2018,04,26,13,38,21.70
2018,04,26,13,39,21.80
2018,04,26,13,40,21.90
2018,04,26,13,41,22.00
2018,04,26,13,42,22.10
2018,04,26,13,43,22.20
2018,04,26,13,44,22.20
2018,04,26,13,45,22.20
2018,04,26,13,46,22.30
2018,04,26,13,47,22.30
2018,04,26,13,48,22.30
2018,04,26,13,49,22.20
2018,04,26,13,50,22.20
2018,04,26,13,51,22.20
2018,04,26,13,52,22.20
2018,04,26,13,53,22.20
2018,04,26,13,54,22.30
2018,04,26,13,55,22.30
2018,04,26,13,56,22.40
2018,04,26,13,57,22.50
2018,04,26,13,58,22.50
2018,04,26,13,59,22.60
2018,04,26,14,00,22.70
2018,04,26,14,01,22.70
2018,04,26,14,02,22.70
2018,04,26,14,03,22.70
2018,04,26,14,04,22.60
2018,04,26,14,05,22.60
2018,04,26,14,06,22.60
2018,04,26,14,07,22.60
2018,04,26,14,08,22.50
2018,04,26,14,09,22.50
2018,04,26,14,10,22.60
2018,04,26,14,11,22.60
2018,04,26,14,12,22.60
2018,04,26,14,13,22.60
2018,04,26,14,14,22.60
2018,04,26,14,15,22.70
2018,04,26,14,16,22.70
2018,04,26,14,17,22.60
2018,04,26,14,18,22.60
2018,04,26,14,19,22.50
2018,04,26,14,20,22.40
2018,04,26,14,21,22.30
2018,04,26,14,22,22.30
2018,04,26,14,23,22.20
2018,04,26,14,24,22.10
2018,04,26,14,25,22.10
2018,04,26,14,26,22.10
2018,04,26,14,27,22.00
2018,04,26,14,28,22.00
2018,04,26,14,29,22.10
2018,04,26,14,30,22.10
2018,04,26,14,31,22.20
2018,04,26,14,32,22.30
2018,04,26,14,33,22.40
2018,04,26,14,34,22.50
2018,04,26,14,35,22.60
2018,04,26,14,36,22.70
2018,04,26,14,37,22.80
2018,04,26,14,38,22.80
2018,04,26,14,39,22.90
2018,04,26,14,40,22.90
2018,04,26,14,41,22.90
2018,04,26,14,42,22.90
2018,04,26,14,43,22.90
2018,04,26,14,44,22.90
2018,04,26,14,45,22.90
2018,04,26,14,46,22.90
2018,04,26,14,47,22.90
2018,04,26,14,48,22.90
2018,04,26,14,49,22.90
2018,04,26,14,50,22.80
2018,04,26,14,51,22.80
2018,04,26,14,52,22.80
2018,04,26,14,53,22.80
2018,04,26,14,54,22.90
2018,04,26,14,55,22.90
2018,04,26,14,56,22.90
2018,04,26,14,57,22.90
2018,04,26,14,58,22.80
2018,04,26,14,59,22.80
2018,04,26,15,00,22.80
2018,04,26,15,01,22.80
2018,04,26,15,02,22.80
2018,04,26,15,03,22.80
2018,04,26,15,04,22.90
2018,04,26,15,05,22.90
2018,04,26,15,06,22.90
2018,04,26,15,07,22.90
2018,04,26,15,08,22.90
2018,04,26,15,09,22.90
2018,04,26,15,10,22.90
2018,04,26,15,11,22.90
2018,04,26,15,12,22.90
2018,04,26,15,13,23.00
2018,04,26,15,14,23.10
2018,04,26,15,15,23.10
2018,04,26,15,16,23.20
2018,04,26,15,17,23.10
2018,04,26,15,18,23.10
2018,04,26,15,19,23.00
2018,04,26,15,20,22.90
2018,04,26,15,21,23.00
2018,04,26,15,22,23.10
2018,04,26,15,23,23.10
2018,04,26,15,24,23.10
2018,04,26,15,25,23.20
2018,04,26,15,26,23.30
2018,04,26,15,27,23.30
2018,04,26,15,28,23.30
2018,04,26,15,29,23.40
2018,04,26,15,30,23.50
2018,04,26,15,31,23.60
2018,04,26,15,32,23.50
2018,04,26,15,33,23.40
2018,04,26,15,34,23.40
2018,04,26,15,35,23.40
2018,04,26,15,36,23.40
2018,04,26,15,37,23.40
2018,04,26,15,38,23.30
2018,04,26,15,39,23.30
2018,04,26,15,40,23.30
2018,04,26,15,41,23.30
2018,04,26,15,42,23.30
2018,04,26,15,43,23.30
2018,04,26,15,44,23.30
2018,04,26,15,45,23.30
2018,04,26,15,46,23.30
2018,04,26,15,47,23.30
2018,04,26,15,48,23.30
2018,04,26,15,49,23.30
2018,04,26,15,50,23.30
2018,04,26,15,51,23.30
2018,04,26,15,52,23.30
2018,04,26,15,53,23.30
2018,04,26,15,54,23.30
2018,04,26,15,55,23.40
2018,04,26,15,56,23.40
2018,04,26,15,57,23.40
2018,04,26,15,58,23.40
2018,04,26,15,59,23.50
2018,04,26,16,00,23.60
2018,04,26,16,01,23.60
2018,04,26,16,02,23.60
2018,04,26,16,03,23.60
2018,04,26,16,04,23.60
2018,04,26,16,05,23.60
2018,04,26,16,06,23.60
2018,04,26,16,07,23.60
2018,04,26,16,08,23.60
2018,04,26,16,09,23.60
2018,04,26,16,10,23.60
2018,04,26,16,11,23.70
2018,04,26,16,12,23.70
2018,04,26,16,13,23.70
2018,04,26,16,14,23.70
2018,04,26,16,15,23.70
2018,04,26,16,16,23.70
2018,04,26,16,17,23.70
2018,04,26,16,18,23.70
2018,04,26,16,19,23.70
2018,04,26,16,20,23.60
2018,04,26,16,21,23.60
2018,04,26,16,22,23.60
2018,04,26,16,23,23.50
2018,04,26,16,24,23.40
2018,04,26,16,25,23.40
2018,04,26,16,26,23.40
2018,04,26,16,27,23.40
2018,04,26,16,28,23.40
2018,04,26,16,29,23.40
2018,04,26,16,30,23.40
2018,04,26,16,31,23.40
2018,04,26,16,32,23.40
2018,04,26,16,33,23.50
2018,04,26,16,34,23.60
2018,04,26,16,35,23.60
2018,04,26,16,36,23.60
2018,04,26,16,37,23.60
2018,04,26,16,38,23.60
2018,04,26,16,39,23.60
2018,04,26,16,40,23.70
2018,04,26,16,41,23.70
2018,04,26,16,42,23.70
2018,04,26,16,43,23.70
2018,04,26,16,44,23.70
2018,04,26,16,45,23.70
2018,04,26,16,46,23.70
2018,04,26,16,47,23.70
2018,04,26,16,48,23.70
2018,04,26,16,49,23.60
2018,04,26,16,50,23.60
2018,04,26,16,51,23.60
2018,04,26,16,52,23.60
2018,04,26,16,53,23.60
2018,04,26,16,54,23.60
2018,04,26,16,55,23.60
2018,04,26,16,56,23.60
2018,04,26,16,57,23.70
2018,04,26,16,58,23.70
2018,04,26,16,59,23.70
2018,04,26,17,00,23.70
2018,04,26,17,01,23.70
2018,04,26,17,02,23.80
2018,04,26,17,03,23.80
2018,04,26,17,04,23.80
2018,04,26,17,05,23.80
2018,04,26,17,06,23.80
2018,04,26,17,07,23.80
2018,04,26,17,08,23.90
2018,04,26,17,09,23.90
2018,04,26,17,10,23.90
2018,04,26,17,11,23.90
2018,04,26,17,12,23.90
2018,04,26,17,13,23.80
2018,04,26,17,14,23.80
2018,04,26,17,15,23.70
2018,04,26,17,16,23.70
2018,04,26,17,17,23.70
2018,04,26,17,18,23.70
2018,04,26,17,19,23.70
2018,04,26,17,20,23.70
2018,04,26,17,21,23.70
2018,04,26,17,22,23.70
2018,04,26,17,23,23.70